Weather History for KEAT - October, 2011

Change the Weather History Date:

Friday, October 14, 2011

  Actual Average Record
Temperature  
Mean Temperature 46 °F 46 °F  
Max Temperature 51 °F 59 °F 77 °F (1961)
Min Temperature 40 °F 34 °F 25 °F (1969)
Degree Days  
Heating Degree Days 19 19  
Month to date heating degree days 205 224  
Since 1 July heating degree days 485 580  
Cooling Degree Days 0 0  
Month to date cooling degree days 0 0  
Year to date cooling degree days 161 249  
Moisture  
Dew Point 39 °F    
Average Humidity 67    
Maximum Humidity 77    
Minimum Humidity 53    
Precipitation  
Precipitation 0.01 in 0.04 in 0.19 in (1968)
Month to date precipitation 0.50 0.42  
Year to date precipitation 13.17 11.47  
Snow  
Snow 0.00 in 0.00 in - ()
Month to date snowfall 0.0 0.0  
Since 1 July snowfall 0.0 0.0  
Since 1 September snowfall 0.0 0.0  
Snow Depth 0.00 in    
Sea Level Pressure  
Sea Level Pressure 30.04 in    
Wind  
Wind Speed 6 mph (WNW)    
Max Wind Speed 12 mph    
Max Gust Speed -    
Visibility 7 miles    
Events Rain    
T = Trace of Precipitation, MM = Missing Value Source: NWS Daily Summary

Daily Weather History Graph

Daily Weather History Graph

Search for Another Location

Airport or City:

Trip Planner

Search our weather history database for the weather conditions in past years. The results will help you decide how hot, cold, wet, or windy it might be!

Date:

Astronomy

Oct. 14, 2011 Rise Set
Actual Time 7:17 AM PDT 6:15 PM PDT
Civil Twilight 6:46 AM PDT 6:46 PM PDT
Nautical Twilight 6:11 AM PDT 7:21 PM PDT
Astronomical Twilight 5:35 AM PDT 7:57 PM PDT
Moon 7:16 PM PDT (10/14) 10:05 AM PDT (10/14)
Length of Visible Light 11h 59m
Length of Day
10h 57m
Waning Gibbous, 94% of the Moon is Illuminated
Oct 14
Waning Gibbous
Oct 19
Last Quarter
Oct 26
New
Nov 2
First Quarter
Nov 10
Full

Hourly Weather History & Observations

Time (PDT) Temp. Windchill Dew Point Humidity Pressure Visibility Wind Dir Wind Speed Gust Speed Precip Events Conditions
12:55 AM 48.9 °F - 37.0 °F 64% 30.06 in 5.0 mi WNW 3.5 mph - N/A   Haze
1:55 AM 50.0 °F - 36.0 °F 59% 30.06 in 6.0 mi NW 4.6 mph - N/A   Haze
2:55 AM 48.9 °F - 36.0 °F 61% 30.06 in 6.0 mi NW 4.6 mph - N/A   Haze
3:55 AM 48.9 °F - 36.0 °F 61% 30.06 in 3.0 mi WNW 5.8 mph - N/A   Haze
4:55 AM 48.0 °F - 37.0 °F 66% 30.05 in 4.0 mi WNW 3.5 mph - N/A   Haze
6:55 AM 46.9 °F - 37.0 °F 68% 30.06 in 4.0 mi Calm Calm - N/A   Haze
7:55 AM 46.9 °F - 37.9 °F 71% 30.06 in 2.5 mi West 4.6 mph - N/A   Haze
8:17 AM 46.4 °F 43.5 °F 39.2 °F 76% 30.06 in 6.0 mi NNW 5.8 mph - 0.00 in Rain Light Rain
8:55 AM 48.0 °F - 39.0 °F 71% 30.08 in 1.8 mi West 6.9 mph - 0.00 in   Haze
9:11 AM 46.4 °F 41.9 °F 39.2 °F 76% 30.06 in 2.0 mi WNW 9.2 mph - 0.00 in Rain Light Rain
9:19 AM 46.4 °F 42.4 °F 39.2 °F 76% 30.07 in 1.5 mi WNW 8.1 mph - 0.00 in Rain Light Rain
9:34 AM 48.2 °F - 39.2 °F 71% 30.07 in 3.0 mi WNW 6.9 mph - 0.00 in Rain Light Rain
9:55 AM 48.0 °F - 41.0 °F 77% 30.08 in 10.0 mi NW 8.1 mph - 0.00 in   Overcast
10:55 AM 48.9 °F - 41.0 °F 74% 30.07 in 10.0 mi WNW 8.1 mph - N/A   Overcast
11:55 AM 51.1 °F - 39.0 °F 63% 30.06 in 10.0 mi WNW 11.5 mph - N/A   Overcast
12:55 PM 52.0 °F - 37.9 °F 59% 30.04 in 10.0 mi West 8.1 mph - N/A   Mostly Cloudy
1:55 PM 53.1 °F - 37.9 °F 57% 30.01 in 10.0 mi West 5.8 mph - N/A   Scattered Clouds
2:55 PM 53.1 °F - 37.9 °F 57% 30.01 in 10.0 mi West 6.9 mph - N/A   Mostly Cloudy
3:55 PM 54.0 °F - 37.0 °F 53% 30.00 in 10.0 mi West 3.5 mph - N/A   Overcast
4:55 PM 53.1 °F - 39.9 °F 61% 30.00 in 10.0 mi WNW 11.5 mph - N/A   Overcast
5:55 PM 52.0 °F - 41.0 °F 66% 30.00 in 10.0 mi NW 8.1 mph - N/A   Overcast
6:55 PM 51.1 °F - 39.9 °F 66% 30.00 in 10.0 mi NNW 6.9 mph - N/A   Mostly Cloudy
7:55 PM 50.0 °F - 41.0 °F 71% 30.00 in 9.0 mi NW 5.8 mph - N/A   Scattered Clouds
8:55 PM 48.9 °F - 41.0 °F 74% 30.00 in 10.0 mi WNW 4.6 mph - N/A   Mostly Cloudy
9:55 PM 50.0 °F - 41.0 °F 71% 30.00 in 10.0 mi WNW 5.8 mph - N/A   Scattered Clouds
11:55 PM 48.9 °F - 41.0 °F 74% 30.01 in 10.0 mi NW 5.8 mph - N/A   Scattered Clouds